Regional Weather Roundup
Issued by NWS

Home | Current Version | Previous Version | Text Only | Print | Product List | Glossary On
Versions: 1 2 3 4 5 6 7 8 9 10 11 12 13 14 15 16 17 18 19 20 21 22 23 24 25 26 27 28 29 30 31 32 33 34 35 36 37 38 39 40 41 42 43 44 45 46 47 48 49 50
000
ASUS43 KOAX 252210
RWRNE

WEATHER ROUNDUP FOR NEBRASKA
NATIONAL WEATHER SERVICE OMAHA NE
500 PM CDT MON SEP 25 2017

NOTES: SATELLITE DATA IS BEING USED TO AUGMENT CLOUD COVER ABOVE
       12000 FEET.
       "FAIR" INDICATES FEW OR NO CLOUDS BELOW 12,000 FEET WITH NO
       SIGNIFICANT WEATHER AND/OR OBSTRUCTIONS TO VISIBILITY.


NEZ001>004-019>022-054>056-252300-
NEBRASKA PANHANDLE

CITY           SKY/WX    TMP DP  RH WIND       PRES   REMARKS
SCOTTSBLUFF    CLOUDY    54  40  59 CALM      30.08S
ALLIANCE       CLOUDY    51  40  65 N6        30.08S
CHADRON        CLOUDY    55  40  56 NE6       30.09F
GORDON         CLOUDY    50  42  74 NE7       30.10R
KIMBALL        CLOUDY    49  41  73 N6        30.09S
SIDNEY         CLOUDY    49  41  74 N13       30.10R
$$

NEZ057>060-069>072-079>082-252300-
SOUTHWEST NEBRASKA

CITY           SKY/WX    TMP DP  RH WIND       PRES   REMARKS
NORTH PLATTE   LGT RAIN  51  48  89 N9        30.05F
IMPERIAL       CLOUDY    50  47  89 NE9       30.06S
LEXINGTON      CLOUDY    53  49  84 N12       30.01F
MCCOOK         CLOUDY    52  50  93 N9        30.02S
OGALLALA       DRIZZLE   52  48  84 NE5       30.07F
$$

NEZ005>010-023>029-035>040-094-252300-
NORTH CENTRAL NEBRASKA

CITY           SKY/WX    TMP DP  RH WIND       PRES   REMARKS
VALENTINE      CLOUDY    52  45  77 N10       30.09S
AINSWORTH      CLOUDY    48  48  99 N14       30.08S FOG
BROKEN BOW     CLOUDY    51  48  89 N14       30.02F
O`NEILL        CLOUDY    50  50 100 N13       30.04F FOG
ORD            CLOUDY    51  47  86 N10       30.01S
THEDFORD       CLOUDY    50  46  87 N8        30.09S
$$

NEZ041-046>049-061>064-073>077-083>087-252300-
SOUTH CENTRAL NEBRASKA

CITY           SKY/WX    TMP DP  RH WIND       PRES   REMARKS
GRAND ISLAND   CLOUDY    53  53 100 N16G22    29.99S
AURORA         CLOUDY    53  53 100 N10       29.97S FOG
HASTINGS       CLOUDY    54  51  90 N15       29.98S
HEBRON         LGT RAIN  60  59  97 N9        29.92F
HOLDREGE       CLOUDY    52  50  92 N9G18     29.98F
KEARNEY        CLOUDY    52  51  97 N15       29.99S
YORK           CLOUDY    55  55 100 N13G18    29.96S
$$

NEZ011>018-030>034-042>045-252300-
NORTHEAST NEBRASKA

CITY           SKY/WX    TMP DP  RH WIND       PRES   REMARKS
NORFOLK        CLOUDY    54  53  97 N13       29.99R
ALBION         DRIZZLE   54  52  94 N12       30.00S
BLAIR          CLOUDY    63  62  96 NW5       29.95R
COLUMBUS       CLOUDY    56  54  93 N10       29.99R
FREMONT        LGT RAIN  60  59  96 NW7       29.96S
TEKAMAH        CLOUDY    61  59  93 N7        29.94R
WAYNE          CLOUDY    55  53  91 NW9       29.99R FOG
$$

NEZ050>053-065>068-078-088>093-252300-
SOUTHEAST NEBRASKA

CITY           SKY/WX    TMP DP  RH WIND       PRES   REMARKS
LINCOLN        CLOUDY    63  60  90 N8        29.93F
OMAHA EPPLEY   CLOUDY    65  61  87 NW9       29.94R
BEATRICE       LGT RAIN  64  63  97 NE6       29.90F
FALLS CITY     CLOUDY    67  66  97 N7        29.88F
NEBRASKA CITY  CLOUDY    66  66 100 NW6       29.91F
PLATTSMOUTH    LGT RAIN  64  64 100 NW8       29.92F
$$

NEZ044-045-051>053-067-252300-
OMAHA AREA

CITY           SKY/WX    TMP DP  RH WIND       PRES   REMARKS
OMAHA EPPLEY   CLOUDY    65  61  87 NW9       29.94R
BLAIR          CLOUDY    63  62  96 NW5       29.95R
FREMONT        LGT RAIN  60  59  96 NW7       29.96S
MILLARD        RAIN      65  64  94 NW6       29.94R
OFFUTT AFB     LGT RAIN  66  63  92 NW9       29.92R
PLATTSMOUTH    LGT RAIN  64  64 100 NW8       29.92F
WAHOO          DRIZZLE   61  60  97 NW8       29.95S
$$




USA.gov is the U.S. government's official web portal to all federal, state and local government web resources and services.